Location: Caramacate
(10.0289°N, 66.7587°W)
Time: 20:25:26
(UTC+00:00)

CZ-4B R/B - Pass Details

Date: 05 August 2024
Orbit: 462 x 607 km, 97.9° (Epoch: 07 September)

Event Time Altitude Azimuth Distance (km) Brightness Sun altitude
Exits shadow 23:25:50 12° 94° (E) 1,598 4.6 -9.6°
Maximum altitude 23:26:51 13° 77° (ENE) 1,524 4.6 -9.8°
Drops below altitude 10° 23:28:34 10° 49° (NE) 1,685 5.0 -10.2°
Sets 23:31:33 0° 20° (NNE) 2,542 6.2 -10.9°
